SL-16 DEB, 22578

Orbit data source: Space-Track

SL-16 DEB, 22578 is space debris in LEO originally from a launch on Fri, 26 Mar 1993 UTC launched from the Tyuratam Missile And Space Complex (TTMTR). Debris objects in space refer to the collection of defunct objects orbiting the Earth. Examples of debris include non-operational satellites, rocket bodies, and fragments generated from explosions, collisions, or faulty payload assembly.

Loading next visibility...
Identifier
22578, 1993-016F
Orbit
LEO
Country
Flag of CISCIS
Related business
Manufacturer
Yuzhnoe
Mission
Spacecraft
Bus & Motor
SEP MOTOR COVER, Unknown motor
Mass
~0 kg wet, ~1 kg dry
Launch date (UTC)
1993-03-26 (33 years ago)
Launch vehicle
Unknown
Launch site
Tyuratam Missile And Space Complex (TTMTR)
Object type
Payload
Rocket body
Debris
Shape & HBR
Unknown shape, 0.5 m
Radar Cross Section
Medium (>0.1 m² and <1 m²)

Expand to show TLE details & history
Last TLE update: 10 hours ago

TLE from 10 hours ago
0 SL-16 DEB
1 22578U 93016F   25308.91805943  .00000724  00000-0  17606-3 0  9996
2 22578  71.0622 285.0973 0109662 231.1489 156.7136 14.52840226722734
Epoch: 2025-11-04T22:02Z
TLE epoch observation values (Epoch: 2025-11-04T22:02:00.334Z)
Latitude
26.73847°
Longitude
-79.90164°
Altitude
790.77 km
Speed
7.423 km/s
True Right ascension
19h 39m 59s
True Declination
26° 36' 04"
Sunlit
Object was in daylight at epoch
Visualization orbit readout
Latitude
Unknown
Longitude
Unknown
Altitude
Unknown
Speed
Unknown
Apparent Right ascension
Unknown
Apparent Declination
Unknown
Sunlit
N/A
Visualization observer readout
Local Sidereal Time
04:18:15
Azimuth
Unknown
Elevation
Unknown
Doppler factor
Unknown
Orbital elements
Apogee altitude
792.045 km
Perigee altitude
636.492 km
Semi-major axis
7,092.405 km
Eccentricity
0.01097
Inclination
71.0622°
RAAN
285.0973°
Arg. of periapsis
231.1489°
True anomaly
157.2042°
Mean anomaly
156.7136°
Eccentric anomaly
156.95951°
Mean motion
3.63373 °/min
Orbital period
99.07 mins
BSTAR
0.00017606
Loading maneuver chart data...
Computing Atmospheric mass density...
Loading historical data...
Loading historical data...
Loading historical data...
Loading historical data...
Loading historical data...
Loading historical data...
Loading historical data...

Documentation

Showing up to 5 results
|